• In Hungary
  • List of Countries
  • For 7 days
  • Water Temperature
  • Satellite Maps
  • Weather Map
  • News
  • Weather Widgets
  • user-avatar
    Login

    Hourly Weather Paporotnyy

    Today, 23 October, Tuesday

    Time Temperature Precipitation Wind Pressure Humidity
    00:00 +3°C° 0 mm 3 mps 749 mmHg 81%
    01:00 +3°C° 0 mm 3 mps 749 mmHg 84%
    02:00 +2°C° 0 mm 3 mps 748 mmHg 84%
    03:00 +3°C° 0.2 mm 3 mps 747 mmHg 85%
    04:00 +3°C° 0.2 mm 4 mps 747 mmHg 86%
    05:00 +3°C° 0.2 mm 4 mps 747 mmHg 87%
    06:00 +3°C° 0 mm 4 mps 746 mmHg 87%
    07:00 +4°C° 0 mm 4 mps 746 mmHg 87%
    08:00 +4°C° 0 mm 4 mps 746 mmHg 87%
    09:00 +5°C° 0 mm 4 mps 745 mmHg 82%
    10:00 +6°C° 0 mm 4 mps 745 mmHg 77%
    11:00 +7°C° 0 mm 4 mps 744 mmHg 72%
    12:00 +7°C° 0 mm 4 mps 743 mmHg 69%
    13:00 +7°C° 0 mm 5 mps 742 mmHg 66%
    14:00 +7°C° 0 mm 5 mps 741 mmHg 63%
    15:00 +7°C° 0.1 mm 5 mps 740 mmHg 66%
    16:00 +6°C° 0.1 mm 5 mps 740 mmHg 69%
    17:00 +6°C° 0.1 mm 5 mps 739 mmHg 72%
    18:00 +5°C° 0.4 mm 5 mps 737 mmHg 73%
    19:00 +4°C° 0.4 mm 6 mps 736 mmHg 75%
    20:00 +4°C° 0.4 mm 6 mps 735 mmHg 77%
    21:00 +4°C° 0.3 mm 6 mps 734 mmHg 77%
    22:00 +4°C° 0.3 mm 7 mps 732 mmHg 78%
    23:00 +4°C° 0.3 mm 7 mps 731 mmHg 79%

    Tomorrow, 24 October, Wednesday

    Time Temperature Precipitation Wind Pressure Humidity
    00:00 +4°C° 0.4 mm 7 mps 730 mmHg 81%
    01:00 +4°C° 0.4 mm 7 mps 729 mmHg 83%
    02:00 +4°C° 0.4 mm 7 mps 727 mmHg 85%
    03:00 +4°C° 0.4 mm 6 mps 726 mmHg 86%
    04:00 +4°C° 0.4 mm 6 mps 725 mmHg 87%
    05:00 +5°C° 0.4 mm 5 mps 724 mmHg 87%
    06:00 +5°C° 0.3 mm 5 mps 724 mmHg 87%
    07:00 +5°C° 0.3 mm 5 mps 724 mmHg 87%
    08:00 +5°C° 0.3 mm 5 mps 723 mmHg 87%
    09:00 +5°C° 0.8 mm 5 mps 724 mmHg 84%
    10:00 +6°C° 0.8 mm 5 mps 724 mmHg 80%
    11:00 +6°C° 0.8 mm 5 mps 724 mmHg 77%
    12:00 +5°C° 0.2 mm 6 mps 725 mmHg 73%
    13:00 +7°C° 0.2 mm 6 mps 725 mmHg 69%
    14:00 +7°C° 0.2 mm 6 mps 725 mmHg 65%
    15:00 +6°C° 0 mm 5 mps 726 mmHg 68%
    16:00 +5°C° 0 mm 4 mps 726 mmHg 71%
    17:00 +4°C° 0 mm 4 mps 726 mmHg 74%
    18:00 +4°C° 0 mm 3 mps 727 mmHg 76%
    19:00 +4°C° 0 mm 3 mps 727 mmHg 79%
    20:00 +3°C° 0 mm 3 mps 727 mmHg 81%
    21:00 +3°C° 0 mm 3 mps 727 mmHg 83%
    22:00 +2°C° 0 mm 3 mps 728 mmHg 85%
    23:00 +2°C° 0 mm 3 mps 728 mmHg 87%

    Day after tomorrow, 25 October, Thursday

    Time Temperature Precipitation Wind Pressure Humidity
    00:00 +2°C° 0.3 mm 3 mps 728 mmHg 88%
    01:00 +3°C° 0.3 mm 4 mps 729 mmHg 88%
    02:00 +3°C° 0.3 mm 4 mps 729 mmHg 88%
    03:00 +2°C° 0.6 mm 5 mps 729 mmHg 87%
    04:00 +3°C° 0.6 mm 6 mps 730 mmHg 86%
    05:00 +3°C° 0.6 mm 6 mps 730 mmHg 84%
    06:00 +3°C° 0.1 mm 6 mps 731 mmHg 82%
    07:00 +3°C° 0.1 mm 6 mps 731 mmHg 81%
    08:00 +2°C° 0.1 mm 7 mps 732 mmHg 79%
    09:00 +2°C° 0 mm 7 mps 733 mmHg 77%
    10:00 +2°C° 0 mm 7 mps 733 mmHg 75%
    11:00 +2°C° 0 mm 7 mps 733 mmHg 72%
    12:00 +3°C° 0 mm 6 mps 734 mmHg 71%
    13:00 +3°C° 0 mm 6 mps 734 mmHg 69%
    14:00 +3°C° 0 mm 5 mps 734 mmHg 67%
    15:00 +4°C° 0 mm 4 mps 734 mmHg 69%
    16:00 +4°C° 0 mm 4 mps 734 mmHg 72%
    17:00 +3°C° 0 mm 3 mps 734 mmHg 75%
    18:00 +3°C° 0 mm 3 mps 734 mmHg 78%
    19:00 +3°C° 0 mm 2 mps 734 mmHg 81%
    20:00 +2°C° 0 mm 2 mps 734 mmHg 85%
    21:00 +2°C° 0 mm 2 mps 734 mmHg 86%
    22:00 +2°C° 0 mm 2 mps 734 mmHg 87%
    23:00 +3°C° 0 mm 1 mps 734 mmHg 89%

    26 October, Friday

    Time Temperature Precipitation Wind Pressure Humidity
    00:00 +3°C° 0 mm 1 mps 734 mmHg 90%
    01:00 +3°C° 0 mm 1 mps 735 mmHg 91%
    02:00 +3°C° 0 mm 1 mps 735 mmHg 92%
    03:00 +1°C° 0 mm 2 mps 736 mmHg 92%
    04:00 +1°C° 0 mm 2 mps 736 mmHg 93%
    05:00 +1°C° 0 mm 2 mps 737 mmHg 93%
    06:00 +1°C° 0 mm 2 mps 737 mmHg 92%
    07:00 +1°C° 0 mm 2 mps 738 mmHg 91%
    08:00 0°C° 0 mm 3 mps 738 mmHg 90%
    09:00 +2°C° 0 mm 3 mps 738 mmHg 83%
    10:00 +3°C° 0 mm 4 mps 739 mmHg 77%
    11:00 +5°C° 0 mm 4 mps 739 mmHg 70%
    12:00 +5°C° 0.4 mm 4 mps 739 mmHg 74%
    13:00 +5°C° 0.4 mm 4 mps 739 mmHg 77%
    14:00 +5°C° 0.4 mm 4 mps 739 mmHg 81%
    15:00 +4°C° 0.1 mm 4 mps 740 mmHg 82%
    16:00 +4°C° 0.1 mm 4 mps 740 mmHg 84%
    17:00 +3°C° 0.1 mm 4 mps 741 mmHg 86%
    18:00 +3°C° 0 mm 3 mps 741 mmHg 87%
    19:00 +2°C° 0 mm 3 mps 742 mmHg 89%
    20:00 +1°C° 0 mm 3 mps 742 mmHg 91%
    21:00 +1°C° 0 mm 3 mps 743 mmHg 91%
    22:00 +1°C° 0 mm 3 mps 743 mmHg 92%
    23:00 +1°C° 0 mm 3 mps 743 mmHg 92%

    27 October, Saturday

    Time Temperature Precipitation Wind Pressure Humidity
    00:00 +1°C° 0 mm 3 mps 743 mmHg 93%
    01:00 +1°C° 0 mm 3 mps 744 mmHg 93%
    02:00 +1°C° 0 mm 3 mps 744 mmHg 94%
    03:00 +1°C° 0 mm 3 mps 743 mmHg 94%
    04:00 0°C° 0 mm 4 mps 743 mmHg 93%
    05:00 0°C° 0 mm 4 mps 743 mmHg 93%
    06:00 +1°C° 0 mm 5 mps 742 mmHg 92%
    07:00 +1°C° 0 mm 5 mps 742 mmHg 91%
    08:00 +2°C° 0 mm 6 mps 741 mmHg 90%
    09:00 +3°C° 0 mm 6 mps 741 mmHg 85%
    10:00 +5°C° 0 mm 7 mps 741 mmHg 80%
    11:00 +8°C° 0 mm 7 mps 740 mmHg 75%
    12:00 +8°C° 0 mm 7 mps 740 mmHg 75%
    13:00 +9°C° 0 mm 7 mps 739 mmHg 75%
    14:00 +10°C° 0 mm 6 mps 739 mmHg 75%
    15:00 +9°C° 0.1 mm 6 mps 739 mmHg 77%
    16:00 +9°C° 0.1 mm 5 mps 739 mmHg 79%
    17:00 +8°C° 0.1 mm 5 mps 739 mmHg 82%
    18:00 +8°C° 0 mm 5 mps 739 mmHg 83%
    19:00 +7°C° 0 mm 4 mps 740 mmHg 83%
    20:00 +7°C° 0 mm 4 mps 740 mmHg 84%
    21:00 +6°C° 0 mm 4 mps 740 mmHg 84%
    22:00 +6°C° 0 mm 4 mps 741 mmHg 83%
    23:00 +6°C° 0 mm 4 mps 741 mmHg 83%

    28 October, Sunday

    Time Temperature Precipitation Wind Pressure Humidity
    00:00 +5°C° 0 mm 4 mps 742 mmHg 82%
    01:00 +5°C° 0 mm 4 mps 742 mmHg 81%
    02:00 +4°C° 0 mm 3 mps 743 mmHg 81%
    03:00 +4°C° 0 mm 3 mps 743 mmHg 82%
    04:00 +4°C° 0 mm 2 mps 744 mmHg 84%
    05:00 +4°C° 0 mm 2 mps 744 mmHg 86%
    06:00 +4°C° 0 mm 2 mps 745 mmHg 86%
    07:00 +4°C° 0 mm 2 mps 745 mmHg 86%
    08:00 +3°C° 0 mm 2 mps 746 mmHg 86%
    09:00 +4°C° 0 mm 2 mps 746 mmHg 82%
    10:00 +4°C° 0 mm 2 mps 747 mmHg 78%
    11:00 +5°C° 0 mm 2 mps 747 mmHg 74%
    12:00 +5°C° 0.4 mm 2 mps 747 mmHg 75%
    13:00 +5°C° 0.4 mm 2 mps 747 mmHg 77%
    14:00 +5°C° 0.4 mm 2 mps 747 mmHg 78%
    15:00 +4°C° 0.4 mm 2 mps 748 mmHg 79%
    16:00 +3°C° 0.4 mm 3 mps 748 mmHg 81%
    17:00 +3°C° 0.4 mm 3 mps 748 mmHg 82%
    18:00 +3°C° 0.5 mm 4 mps 748 mmHg 83%
    19:00 +3°C° 0.5 mm 4 mps 748 mmHg 83%
    20:00 +3°C° 0.5 mm 4 mps 748 mmHg 83%
    21:00 +3°C° 0.7 mm 4 mps 748 mmHg 84%
    22:00 +2°C° 0.7 mm 5 mps 748 mmHg 85%
    23:00 +2°C° 0.7 mm 5 mps 748 mmHg 87%

    29 October, Monday

    Time Temperature Precipitation Wind Pressure Humidity
    00:00 +2°C° 1.2 mm 5 mps 747 mmHg 88%
    01:00 +2°C° 1.2 mm 6 mps 747 mmHg 89%
    02:00 +2°C° 1.2 mm 6 mps 747 mmHg 90%
    03:00 +2°C° 0.4 mm 6 mps 746 mmHg 90%
    04:00 +2°C° 0.4 mm 6 mps 746 mmHg 91%
    05:00 +2°C° 0.4 mm 6 mps 745 mmHg 91%
    06:00 +3°C° 0 mm 5 mps 745 mmHg 92%
    07:00 +3°C° 0 mm 5 mps 745 mmHg 92%
    08:00 +3°C° 0 mm 5 mps 745 mmHg 92%
    09:00 +6°C° 0 mm 5 mps 744 mmHg 92%
    10:00 +7°C° 0 mm 5 mps 744 mmHg 92%
    11:00 +8°C° 0 mm 4 mps 744 mmHg 92%
    12:00 +10°C° 0 mm 4 mps 743 mmHg 93%
    13:00 +10°C° 0 mm 4 mps 743 mmHg 94%
    14:00 +11°C° 0 mm 4 mps 742 mmHg 95%
    15:00 +11°C° 0 mm 4 mps 742 mmHg 95%
    16:00 +11°C° 0 mm 3 mps 742 mmHg 94%
    17:00 +12°C° 0 mm 3 mps 741 mmHg 93%
    18:00 +12°C° 0 mm 4 mps 741 mmHg 89%
    19:00 +12°C° 0 mm 4 mps 741 mmHg 85%
    20:00 +12°C° 0 mm 4 mps 741 mmHg 81%
    21:00 +12°C° 0 mm 5 mps 741 mmHg 78%
    22:00 +12°C° 0 mm 5 mps 741 mmHg 74%
    23:00 +12°C° 0 mm 5 mps 741 mmHg 70%
    Show more